QPF
0.00 0.00 0.01 0.01 0.03 0.03 0.03 0.02 0.01 0.01 0.01 0.02 0.03 0.03 0.04 0.03 0.02 0.03 0.04 0.05 0.04 0.04 0.05 0.06 0.07 0.06 0.07 0.08 0.08 0.06 0.06 0.05 0.05 0.04 0.04 0.05 0.05 0.04 0.05 0.05 0.05 0.05 0.03
0.01 0.01 0.01 0.01 0.03 0.03 0.02 0.02 0.02 0.01 0.01 0.02 0.03 0.03 0.04 0.03 0.03 0.02 0.02 0.03 0.03 0.03 0.05 0.06 0.06 0.07 0.08 0.07 0.07 0.07 0.07 0.07 0.06 0.05 0.05 0.05 0.05 0.04 0.04 0.03 0.02 0.03 0.03
0.02 0.02 0.02 0.03 0.03 0.03 0.02 0.02 0.02 0.02 0.02 0.02 0.03 0.03 0.03 0.03 0.03 0.02 0.02 0.03 0.07 0.07 0.06 0.06 0.06 0.08 0.08 0.07 0.07 0.06 0.05 0.06 0.07 0.06 0.05 0.06 0.05 0.04 0.05 0.04 0.03 0.03 0.02
0.01 0.02 0.02 0.03 0.03 0.03 0.03 0.02 0.02 0.02 0.02 0.03 0.03 0.03 0.04 0.03 0.03 0.04 0.05 0.08 0.08 0.07 0.06 0.04 0.03 0.04 0.05 0.05 0.05 0.05 0.07 0.08 0.09 0.08 0.06 0.05 0.05 0.05 0.06 0.05 0.05 0.05 0.03
0.01 0.02 0.02 0.03 0.03 0.04 0.03 0.03 0.02 0.02 0.03 0.03 0.03 0.03 0.03 0.03 0.02 0.03 0.04 0.06 0.07 0.06 0.06 0.04 0.03 0.03 0.03 0.03 0.03 0.04 0.05 0.05 0.05 0.05 0.05 0.04 0.04 0.05 0.05 0.05 0.06 0.07 0.06
0.03 0.02 0.03 0.03 0.04 0.04 0.04 0.04 0.04 0.03 0.03 0.03 0.03 0.02 0.02 0.02 0.02 0.02 0.03 0.05 0.04 0.05 0.04 0.04 0.03 0.02 0.02 0.02 0.02 0.02 0.03 0.03 0.04 0.05 0.04 0.04 0.04 0.04 0.05 0.05 0.06 0.08 0.07
0.04 0.05 0.04 0.03 0.04 0.05 0.04 0.05 0.05 0.05 0.05 0.04 0.03 0.03 0.03 0.03 0.03 0.02 0.03 0.05 0.05 0.05 0.05 0.05 0.03 0.01 0.01 0.01 0.02 0.02 0.02 0.03 0.03 0.04 0.04 0.04 0.05 0.05 0.06 0.06 0.07 0.08 0.08
0.03 0.05 0.06 0.05 0.04 0.06 0.06 0.05 0.05 0.05 0.05 0.05 0.04 0.04 0.04 0.03 0.03 0.03 0.02 0.05 0.06 0.06 0.06 0.05 0.04 0.03 0.02 0.03 0.03 0.02 0.02 0.03 0.02 0.02 0.03 0.03 0.03 0.03 0.05 0.05 0.05 0.06 0.07
0.02 0.02 0.03 0.06 0.05 0.06 0.05 0.04 0.05 0.05 0.05 0.05 0.06 0.04 0.03 0.03 0.02 0.02 0.03 0.04 0.07 0.08 0.07 0.06 0.06 0.04 0.03 0.02 0.03 0.03 0.04 0.03 0.01 0.01 0.01 0.01 0.01 0.01 0.02 0.03 0.03 0.04 0.04
0.02 0.02 0.02 0.03 0.05 0.04 0.04 0.04 0.04 0.04 0.03 0.05 0.05 0.06 0.05 0.03 0.02 0.02 0.02 0.03 0.03 0.04 0.06 0.06 0.06 0.04 0.03 0.02 0.02 0.03 0.02 0.02 0.02 0.02 0.02 0.02 0.02 0.02 0.02 0.02 0.03 0.04 0.04
0.05 0.04 0.03 0.03 0.04 0.05 0.05 0.04 0.03 0.03 0.03 0.03 0.04 0.04 0.06 0.06 0.03 0.01 0.01 0.03 0.03 0.03 0.03 0.03 0.03 0.02 0.02 0.02 0.02 0.02 0.02 0.02 0.02 0.02 0.02 0.02 0.02 0.02 0.03 0.02 0.03 0.03 0.03
0.09 0.05 0.04 0.04 0.04 0.04 0.04 0.03 0.03 0.03 0.02 0.02 0.03 0.03 0.03 0.05 0.04 0.03 0.01 0.01 0.02 0.03 0.03 0.03 0.02 0.01 0.01 0.01 0.01 0.01 0.01 0.01 0.02 0.02 0.02 0.02 0.02 0.02 0.03 0.03 0.03 0.03 0.04
0.14 0.12 0.07 0.04 0.04 0.05 0.05 0.04 0.03 0.03 0.03 0.02 0.02 0.02 0.03 0.03 0.04 0.02 0.01 0.01 0.01 0.02 0.01 0.02 0.02 0.01 0.01 0.01 0.01 0.01 0.01 0.01 0.01 0.02 0.02 0.02 0.02 0.02 0.03 0.04 0.04 0.05 0.05
0.06 0.07 0.07 0.05 0.04 0.04 0.04 0.04 0.04 0.03 0.03 0.03 0.03 0.03 0.02 0.03 0.03 0.02 0.02 0.01 0.01 0.01 0.01 0.01 0.01 0.01 0.02 0.01 0.01 0.02 0.02 0.02 0.02 0.02 0.02 0.02 0.02 0.03 0.03 0.04 0.05 0.06 0.06
0.04 0.05 0.05 0.04 0.03 0.03 0.03 0.03 0.03 0.03 0.03 0.03 0.03 0.03 0.03 0.03 0.02 0.02 0.01 0.01 0.01 0.01 0.01 0.02 0.02 0.03 0.02 0.03 0.03 0.04 0.04 0.03 0.03 0.04 0.03 0.04 0.04 0.03 0.03 0.03 0.04 0.04 0.04
0.05 0.05 0.06 0.04 0.03 0.03 0.03 0.03 0.02 0.02 0.02 0.02 0.04 0.04 0.04 0.03 0.03 0.02 0.02 0.02 0.02 0.02 0.02 0.03 0.03 0.03 0.03 0.03 0.03 0.03 0.03 0.03 0.02 0.02 0.03 0.03 0.03 0.02 0.02 0.03 0.04 0.04 0.04
0.05 0.07 0.06 0.06 0.05 0.04 0.03 0.03 0.04 0.02 0.02 0.03 0.04 0.05 0.04 0.04 0.04 0.04 0.03 0.03 0.03 0.04 0.04 0.05 0.04 0.04 0.05 0.04 0.04 0.04 0.03 0.02 0.02 0.03 0.03 0.03 0.02 0.02 0.03 0.03 0.04 0.03 0.03
0.04 0.05 0.06 0.07 0.06 0.05 0.04 0.04 0.05 0.06 0.04 0.03 0.03 0.03 0.03 0.03 0.03 0.04 0.04 0.04 0.05 0.06 0.06 0.06 0.05 0.05 0.05 0.05 0.04 0.04 0.03 0.03 0.02 0.02 0.03 0.03 0.03 0.03 0.04 0.03 0.02 0.02 0.03
0.07 0.07 0.05 0.04 0.03 0.03 0.03 0.04 0.05 0.06 0.06 0.04 0.03 0.03 0.03 0.03 0.03 0.04 0.04 0.05 0.06 0.07 0.07 0.07 0.07 0.06 0.06 0.05 0.05 0.04 0.04 0.03 0.03 0.04 0.04 0.04 0.04 0.04 0.04 0.03 0.02 0.02 0.03
0.05 0.06 0.04 0.03 0.03 0.02 0.02 0.03 0.04 0.04 0.04 0.04 0.05 0.04 0.04 0.05 0.04 0.04 0.04 0.05 0.07 0.07 0.06 0.06 0.06 0.06 0.05 0.04 0.04 0.05 0.05 0.04 0.04 0.04 0.04 0.04 0.04 0.04 0.03 0.03 0.03 0.03 0.03
0.03 0.04 0.04 0.03 0.04 0.04 0.03 0.02 0.02 0.02 0.02 0.03 0.04 0.05 0.06 0.06 0.05 0.04 0.04 0.05 0.06 0.06 0.06 0.05 0.05 0.05 0.05 0.04 0.03 0.03 0.04 0.05 0.04 0.04 0.03 0.03 0.03 0.03 0.02 0.02 0.03 0.03 0.04
0.02 0.02 0.03 0.03 0.04 0.04 0.03 0.03 0.02 0.02 0.01 0.01 0.02 0.03 0.05 0.07 0.08 0.07 0.06 0.06 0.06 0.05 0.05 0.05 0.05 0.04 0.03 0.03 0.04 0.03 0.03 0.04 0.04 0.04 0.04 0.03 0.02 0.02 0.02 0.02 0.02 0.02 0.03
0.02 0.01 0.02 0.02 0.02 0.03 0.03 0.02 0.03 0.02 0.01 0.01 0.01 0.03 0.04 0.06 0.09 0.10 0.09 0.09 0.08 0.05 0.03 0.04 0.04 0.04 0.03 0.04 0.04 0.04 0.04 0.04 0.04 0.03 0.03 0.03 0.03 0.02 0.03 0.02 0.02 0.02 0.03
0.02 0.02 0.02 0.02 0.02 0.03 0.03 0.03 0.03 0.03 0.02 0.02 0.02 0.03 0.04 0.05 0.06 0.07 0.08 0.09 0.08 0.05 0.03 0.02 0.03 0.03 0.03 0.04 0.04 0.04 0.04 0.04 0.04 0.04 0.03 0.03 0.03 0.02 0.02 0.02 0.02 0.02 0.02
0.02 0.02 0.02 0.02 0.03 0.03 0.04 0.04 0.04 0.04 0.04 0.03 0.03 0.04 0.05 0.04 0.03 0.04 0.05 0.05 0.04 0.03 0.03 0.02 0.03 0.03 0.03 0.03 0.04 0.04 0.04 0.03 0.03 0.03 0.03 0.03 0.02 0.02 0.02 0.02 0.03 0.03 0.04
0.02 0.02 0.03 0.03 0.04 0.04 0.05 0.05 0.05 0.04 0.04 0.04 0.04 0.06 0.05 0.04 0.03 0.03 0.03 0.03 0.02 0.01 0.01 0.01 0.02 0.02 0.03 0.03 0.04 0.04 0.03 0.02 0.03 0.03 0.03 0.03 0.03 0.03 0.03 0.03 0.03 0.04 0.04
MSLP
1006.09 1006.47 1006.77 1006.98 1007.05 1006.97 1006.76 1006.44 1006.05 1005.65 1005.28 1004.98 1004.79 1004.73 1004.80 1005.01 1005.32 1005.74 1006.23 1006.76 1007.31 1007.85 1008.36 1008.81 1009.19 1009.49 1009.72 1009.89 1010.01 1010.11 1010.20 1010.31 1010.44 1010.60 1010.78 1010.98 1011.18 1011.40 1011.62 1011.85 1012.11 1012.41 1012.73
1005.54 1005.94 1006.27 1006.52 1006.65 1006.64 1006.50 1006.25 1005.92 1005.56 1005.20 1004.88 1004.65 1004.52 1004.51 1004.62 1004.85 1005.17 1005.58 1006.04 1006.53 1007.02 1007.49 1007.91 1008.27 1008.58 1008.82 1009.03 1009.22 1009.40 1009.60 1009.82 1010.07 1010.33 1010.61 1010.88 1011.14 1011.37 1011.58 1011.78 1011.97 1012.19 1012.43
1005.00 1005.39 1005.74 1006.02 1006.21 1006.27 1006.22 1006.06 1005.82 1005.52 1005.20 1004.90 1004.64 1004.46 1004.37 1004.39 1004.51 1004.72 1005.02 1005.39 1005.80 1006.22 1006.64 1007.02 1007.37 1007.68 1007.96 1008.22 1008.47 1008.74 1009.04 1009.37 1009.73 1010.10 1010.47 1010.81 1011.11 1011.36 1011.56 1011.72 1011.87 1012.01 1012.18
1004.52 1004.87 1005.21 1005.51 1005.73 1005.87 1005.90 1005.84 1005.70 1005.49 1005.23 1004.96 1004.70 1004.47 1004.31 1004.23 1004.23 1004.33 1004.51 1004.78 1005.09 1005.44 1005.80 1006.16 1006.50 1006.82 1007.13 1007.44 1007.76 1008.11 1008.49 1008.90 1009.35 1009.80 1010.24 1010.64 1010.98 1011.25 1011.45 1011.59 1011.70 1011.80 1011.92
1004.14 1004.43 1004.72 1005.00 1005.25 1005.43 1005.54 1005.57 1005.52 1005.39 1005.20 1004.96 1004.70 1004.44 1004.22 1004.04 1003.93 1003.91 1003.98 1004.14 1004.37 1004.65 1004.97 1005.31 1005.65 1005.99 1006.33 1006.68 1007.05 1007.45 1007.88 1008.36 1008.85 1009.35 1009.83 1010.27 1010.64 1010.93 1011.15 1011.30 1011.41 1011.51 1011.62
1003.86 1004.05 1004.28 1004.51 1004.75 1004.95 1005.11 1005.20 1005.22 1005.17 1005.03 1004.82 1004.56 1004.27 1003.98 1003.72 1003.52 1003.39 1003.36 1003.43 1003.59 1003.82 1004.12 1004.45 1004.81 1005.17 1005.54 1005.93 1006.33 1006.76 1007.22 1007.71 1008.21 1008.72 1009.22 1009.67 1010.06 1010.38 1010.63 1010.82 1010.96 1011.09 1011.23
1003.64 1003.73 1003.87 1004.04 1004.24 1004.43 1004.60 1004.73 1004.80 1004.78 1004.67 1004.48 1004.21 1003.89 1003.55 1003.22 1002.94 1002.74 1002.63 1002.64 1002.76 1002.98 1003.27 1003.62 1004.00 1004.40 1004.81 1005.22 1005.63 1006.06 1006.51 1006.98 1007.46 1007.95 1008.43 1008.88 1009.29 1009.64 1009.93 1010.17 1010.38 1010.57 1010.77
1003.44 1003.44 1003.50 1003.60 1003.74 1003.90 1004.06 1004.19 1004.26 1004.25 1004.16 1003.96 1003.68 1003.33 1002.95 1002.58 1002.24 1001.99 1001.85 1001.84 1001.95 1002.18 1002.49 1002.88 1003.30 1003.74 1004.17 1004.59 1005.00 1005.41 1005.82 1006.24 1006.68 1007.12 1007.56 1007.99 1008.40 1008.78 1009.12 1009.43 1009.71 1009.98 1010.27
1003.23 1003.16 1003.15 1003.20 1003.29 1003.40 1003.53 1003.63 1003.68 1003.66 1003.56 1003.35 1003.05 1002.69 1002.28 1001.89 1001.54 1001.28 1001.13 1001.13 1001.26 1001.52 1001.87 1002.30 1002.76 1003.23 1003.68 1004.10 1004.50 1004.86 1005.22 1005.57 1005.94 1006.31 1006.71 1007.11 1007.52 1007.92 1008.30 1008.68 1009.04 1009.40 1009.77
1002.96 1002.87 1002.83 1002.84 1002.90 1002.98 1003.06 1003.13 1003.16 1003.11 1002.98 1002.76 1002.46 1002.09 1001.69 1001.30 1000.96 1000.72 1000.60 1000.62 1000.79 1001.09 1001.49 1001.95 1002.44 1002.92 1003.38 1003.78 1004.13 1004.45 1004.74 1005.02 1005.31 1005.62 1005.96 1006.33 1006.73 1007.14 1007.57 1008.00 1008.43 1008.87 1009.31
1002.62 1002.56 1002.53 1002.55 1002.59 1002.65 1002.70 1002.74 1002.74 1002.67 1002.53 1002.31 1002.00 1001.65 1001.28 1000.92 1000.62 1000.42 1000.34 1000.41 1000.61 1000.94 1001.36 1001.84 1002.33 1002.80 1003.23 1003.59 1003.90 1004.15 1004.37 1004.58 1004.80 1005.05 1005.35 1005.69 1006.08 1006.51 1006.97 1007.44 1007.93 1008.42 1008.92
1002.21 1002.22 1002.24 1002.29 1002.34 1002.40 1002.44 1002.47 1002.45 1002.37 1002.23 1002.02 1001.75 1001.43 1001.10 1000.80 1000.56 1000.41 1000.38 1000.48 1000.71 1001.04 1001.45 1001.90 1002.36 1002.79 1003.17 1003.47 1003.71 1003.90 1004.06 1004.21 1004.38 1004.59 1004.86 1005.19 1005.58 1006.03 1006.51 1007.02 1007.55 1008.09 1008.63
1001.75 1001.84 1001.94 1002.02 1002.11 1002.18 1002.24 1002.26 1002.24 1002.18 1002.06 1001.88 1001.65 1001.40 1001.14 1000.91 1000.73 1000.63 1000.64 1000.76 1000.98 1001.28 1001.65 1002.04 1002.43 1002.78 1003.08 1003.31 1003.48 1003.61 1003.72 1003.83 1003.98 1004.18 1004.44 1004.79 1005.20 1005.67 1006.18 1006.73 1007.29 1007.86 1008.43
1001.26 1001.43 1001.58 1001.72 1001.83 1001.93 1002.00 1002.03 1002.03 1001.99 1001.91 1001.79 1001.63 1001.45 1001.27 1001.12 1001.00 1000.95 1000.98 1001.10 1001.28 1001.53 1001.82 1002.12 1002.40 1002.65 1002.86 1003.01 1003.11 1003.19 1003.27 1003.38 1003.53 1003.75 1004.04 1004.42 1004.87 1005.39 1005.95 1006.54 1007.14 1007.74 1008.34
1000.76 1000.98 1001.17 1001.33 1001.47 1001.57 1001.65 1001.71 1001.73 1001.73 1001.70 1001.64 1001.56 1001.46 1001.37 1001.29 1001.23 1001.22 1001.26 1001.35 1001.48 1001.65 1001.84 1002.02 1002.19 1002.33 1002.43 1002.51 1002.56 1002.61 1002.69 1002.81 1003.00 1003.27 1003.63 1004.07 1004.59 1005.17 1005.79 1006.43 1007.07 1007.71 1008.34
1000.31 1000.53 1000.71 1000.86 1000.98 1001.09 1001.17 1001.23 1001.28 1001.32 1001.34 1001.35 1001.34 1001.33 1001.31 1001.30 1001.30 1001.31 1001.34 1001.40 1001.47 1001.55 1001.63 1001.71 1001.76 1001.80 1001.82 1001.84 1001.86 1001.91 1002.01 1002.17 1002.43 1002.77 1003.21 1003.74 1004.34 1005.00 1005.69 1006.40 1007.10 1007.79 1008.46
999.97 1000.12 1000.25 1000.36 1000.44 1000.52 1000.58 1000.64 1000.71 1000.78 1000.84 1000.91 1000.98 1001.03 1001.08 1001.13 1001.16 1001.20 1001.22 1001.25 1001.26 1001.27 1001.26 1001.24 1001.21 1001.17 1001.14 1001.12 1001.13 1001.20 1001.34 1001.57 1001.89 1002.33 1002.86 1003.48 1004.17 1004.91 1005.68 1006.46 1007.23 1007.97 1008.69
999.78 999.84 999.88 999.92 999.94 999.97 1000.00 1000.05 1000.12 1000.21 1000.31 1000.42 1000.53 1000.64 1000.74 1000.83 1000.90 1000.94 1000.96 1000.97 1000.94 1000.90 1000.84 1000.76 1000.68 1000.60 1000.54 1000.51 1000.54 1000.64 1000.83 1001.13 1001.53 1002.03 1002.65 1003.35 1004.12 1004.94 1005.78 1006.62 1007.44 1008.24 1008.99
999.79 999.75 999.70 999.64 999.60 999.57 999.58 999.61 999.67 999.76 999.88 1000.01 1000.16 1000.30 1000.43 1000.54 1000.63 1000.68 1000.71 1000.70 1000.67 1000.61 1000.53 1000.43 1000.34 1000.26 1000.21 1000.21 1000.26 1000.40 1000.64 1000.98 1001.43 1001.99 1002.65 1003.41 1004.23 1005.10 1005.98 1006.87 1007.74 1008.57 1009.35
1000.03 999.89 999.76 999.64 999.54 999.48 999.45 999.46 999.51 999.60 999.72 999.86 1000.01 1000.15 1000.29 1000.41 1000.51 1000.57 1000.61 1000.61 1000.59 1000.55 1000.48 1000.42 1000.35 1000.30 1000.28 1000.31 1000.40 1000.57 1000.83 1001.20 1001.67 1002.24 1002.92 1003.68 1004.51 1005.39 1006.29 1007.19 1008.07 1008.91 1009.70
1000.48 1000.29 1000.11 999.96 999.84 999.75 999.71 999.71 999.75 999.83 999.94 1000.06 1000.20 1000.33 1000.46 1000.57 1000.66 1000.73 1000.78 1000.81 1000.82 1000.81 1000.80 1000.78 1000.77 1000.78 1000.81 1000.87 1000.99 1001.18 1001.44 1001.79 1002.24 1002.78 1003.42 1004.14 1004.93 1005.77 1006.64 1007.52 1008.38 1009.21 1009.98
1001.09 1000.90 1000.73 1000.58 1000.47 1000.40 1000.37 1000.37 1000.41 1000.47 1000.56 1000.66 1000.76 1000.87 1000.96 1001.05 1001.14 1001.21 1001.27 1001.32 1001.38 1001.43 1001.48 1001.53 1001.58 1001.65 1001.73 1001.83 1001.96 1002.15 1002.38 1002.69 1003.07 1003.54 1004.10 1004.73 1005.44 1006.20 1007.00 1007.82 1008.63 1009.41 1010.14
1001.77 1001.63 1001.52 1001.43 1001.36 1001.33 1001.33 1001.35 1001.39 1001.44 1001.51 1001.58 1001.64 1001.71 1001.77 1001.82 1001.89 1001.95 1002.02 1002.11 1002.20 1002.31 1002.43 1002.55 1002.67 1002.79 1002.92 1003.05 1003.18 1003.34 1003.53 1003.77 1004.06 1004.42 1004.86 1005.38 1005.97 1006.62 1007.32 1008.04 1008.77 1009.49 1010.15
1002.43 1002.38 1002.35 1002.34 1002.36 1002.38 1002.42 1002.47 1002.52 1002.57 1002.62 1002.66 1002.68 1002.71 1002.73 1002.76 1002.79 1002.85 1002.93 1003.04 1003.17 1003.33 1003.51 1003.69 1003.87 1004.04 1004.20 1004.35 1004.48 1004.60 1004.73 1004.89 1005.08 1005.32 1005.63 1006.01 1006.47 1006.99 1007.57 1008.19 1008.82 1009.44 1010.03
1002.99 1003.04 1003.12 1003.20 1003.29 1003.38 1003.47 1003.55 1003.62 1003.67 1003.71 1003.72 1003.72 1003.72 1003.71 1003.71 1003.73 1003.78 1003.87 1003.99 1004.16 1004.36 1004.58 1004.81 1005.03 1005.24 1005.43 1005.58 1005.70 1005.79 1005.87 1005.95 1006.04 1006.17 1006.36 1006.61 1006.93 1007.33 1007.78 1008.29 1008.81 1009.34 1009.85
1003.41 1003.56 1003.72 1003.88 1004.04 1004.19 1004.32 1004.44 1004.53 1004.59 1004.63 1004.64 1004.63 1004.62 1004.60 1004.59 1004.60 1004.65 1004.75 1004.89 1005.07 1005.30 1005.55 1005.81 1006.07 1006.30 1006.51 1006.67 1006.78 1006.85 1006.88 1006.90 1006.92 1006.97 1007.05 1007.19 1007.40 1007.67 1008.01 1008.40 1008.82 1009.25 1009.67
Thickness
5744 5742 5740 5738 5736 5734 5732 5731 5730 5729 5728 5726 5724 5722 5721 5720 5719 5717 5716 5715 5713 5711 5711 5710 5710 5710 5708 5707 5707 5706 5705 5703 5698 5700 5704 5705 5704 5703 5702 5701 5700 5699 5696
5741 5738 5735 5734 5732 5730 5729 5728 5727 5725 5724 5723 5721 5719 5717 5716 5714 5713 5711 5710 5708 5707 5706 5705 5704 5704 5703 5702 5701 5700 5699 5699 5696 5692 5695 5697 5697 5698 5697 5696 5696 5695 5695
5736 5733 5730 5728 5727 5725 5724 5723 5722 5721 5720 5719 5717 5714 5712 5711 5710 5709 5707 5706 5705 5703 5701 5699 5698 5697 5696 5696 5695 5695 5694 5695 5693 5690 5689 5691 5692 5692 5691 5691 5691 5691 5692
5731 5728 5725 5724 5722 5721 5720 5718 5717 5716 5715 5714 5712 5710 5708 5706 5705 5703 5702 5701 5699 5698 5697 5695 5694 5693 5691 5690 5690 5689 5689 5687 5687 5685 5684 5685 5685 5686 5684 5682 5682 5685 5686
5725 5723 5720 5719 5718 5716 5715 5713 5712 5711 5711 5709 5707 5705 5703 5701 5699 5697 5696 5695 5693 5692 5691 5690 5689 5688 5686 5685 5684 5683 5682 5680 5679 5678 5677 5678 5677 5677 5676 5677 5676 5677 5680
5720 5718 5716 5714 5712 5710 5709 5708 5706 5705 5704 5703 5701 5699 5697 5695 5692 5691 5690 5688 5687 5686 5685 5684 5683 5681 5680 5678 5677 5677 5676 5674 5673 5671 5671 5671 5671 5672 5672 5671 5670 5669 5669
5714 5712 5711 5709 5707 5705 5704 5702 5700 5699 5697 5695 5694 5692 5689 5687 5685 5684 5683 5682 5681 5680 5679 5677 5677 5677 5674 5672 5671 5670 5670 5670 5668 5667 5665 5665 5666 5667 5666 5664 5664 5663 5664
5706 5705 5705 5704 5701 5700 5698 5695 5695 5693 5690 5688 5686 5685 5683 5681 5679 5677 5676 5675 5674 5674 5673 5672 5670 5668 5667 5665 5665 5665 5665 5665 5664 5663 5662 5662 5662 5662 5661 5660 5659 5659 5661
5698 5697 5697 5697 5695 5693 5690 5688 5687 5685 5682 5681 5680 5679 5677 5674 5672 5671 5669 5668 5667 5667 5667 5665 5664 5661 5659 5657 5657 5656 5657 5658 5658 5658 5658 5657 5657 5656 5654 5652 5652 5650 5651
5691 5691 5691 5691 5688 5686 5684 5682 5681 5679 5676 5675 5673 5672 5671 5668 5665 5664 5661 5661 5660 5659 5658 5657 5655 5653 5651 5649 5649 5649 5649 5650 5651 5651 5651 5651 5652 5651 5650 5647 5646 5644 5644
5685 5685 5684 5683 5682 5680 5678 5676 5674 5672 5670 5668 5666 5666 5664 5662 5658 5656 5653 5653 5652 5651 5650 5649 5646 5645 5644 5642 5641 5642 5642 5642 5643 5644 5645 5646 5646 5646 5646 5644 5643 5640 5638
5678 5677 5676 5676 5676 5674 5671 5669 5667 5664 5662 5660 5659 5658 5657 5655 5652 5648 5646 5644 5642 5642 5642 5642 5639 5637 5636 5636 5635 5636 5635 5635 5636 5637 5638 5639 5639 5640 5641 5640 5639 5637 5636
5669 5667 5667 5668 5668 5666 5663 5661 5659 5657 5656 5654 5652 5650 5649 5648 5645 5641 5638 5636 5635 5634 5635 5633 5631 5631 5630 5631 5631 5630 5629 5630 5631 5631 5631 5632 5634 5634 5635 5634 5634 5633 5631
5660 5659 5659 5659 5658 5657 5655 5654 5652 5650 5649 5647 5645 5643 5642 5641 5638 5634 5631 5629 5627 5626 5626 5625 5624 5625 5625 5625 5626 5626 5626 5627 5626 5626 5626 5626 5627 5627 5627 5627 5625 5624 5623
5652 5652 5651 5651 5650 5648 5646 5644 5644 5641 5640 5638 5638 5637 5635 5633 5628 5625 5624 5623 5622 5619 5618 5619 5619 5620 5620 5622 5623 5623 5623 5623 5621 5620 5620 5619 5618 5619 5619 5619 5618 5617 5615
5643 5643 5643 5643 5642 5641 5639 5635 5633 5632 5630 5629 5628 5628 5626 5624 5621 5619 5618 5616 5614 5613 5612 5614 5614 5615 5616 5617 5618 5618 5618 5617 5617 5615 5614 5613 5612 5612 5612 5612 5611 5609 5607
5635 5635 5635 5635 5634 5634 5633 5630 5626 5623 5622 5621 5620 5619 5618 5616 5614 5612 5611 5610 5609 5608 5608 5609 5610 5610 5611 5612 5612 5612 5612 5612 5612 5610 5609 5608 5607 5606 5605 5604 5603 5602 5601
5627 5626 5627 5627 5628 5627 5627 5625 5623 5620 5617 5614 5612 5611 5610 5609 5608 5606 5605 5604 5605 5604 5605 5606 5606 5606 5606 5606 5606 5605 5605 5605 5605 5604 5603 5602 5601 5599 5598 5597 5596 5595 5594
5619 5619 5619 5619 5620 5620 5620 5619 5618 5616 5614 5611 5609 5605 5602 5601 5600 5599 5598 5600 5601 5601 5601 5601 5601 5600 5600 5599 5598 5598 5597 5597 5596 5596 5596 5595 5594 5592 5591 5591 5590 5589 5588
5611 5610 5610 5612 5613 5613 5614 5613 5612 5611 5609 5607 5604 5603 5599 5596 5595 5594 5593 5595 5595 5596 5596 5595 5594 5593 5592 5591 5590 5589 5589 5588 5588 5588 5588 5587 5587 5586 5585 5584 5584 5583 5582
5605 5604 5602 5604 5606 5606 5606 5606 5606 5605 5603 5602 5600 5598 5594 5593 5593 5592 5591 5590 5590 5590 5589 5588 5587 5586 5585 5584 5582 5582 5581 5580 5580 5580 5580 5580 5580 5579 5578 5578 5577 5577 5576
5598 5598 5598 5598 5598 5598 5599 5599 5599 5598 5597 5596 5595 5593 5589 5588 5589 5588 5586 5585 5585 5584 5583 5582 5580 5578 5577 5576 5574 5573 5572 5571 5571 5571 5571 5572 5572 5571 5570 5570 5570 5569 5568
5590 5591 5591 5591 5591 5589 5590 5592 5592 5592 5591 5590 5589 5588 5585 5583 5583 5581 5579 5578 5577 5577 5576 5574 5572 5571 5569 5567 5565 5564 5562 5561 5561 5561 5562 5562 5563 5563 5562 5561 5560 5560 5559
5583 5583 5583 5583 5583 5583 5584 5584 5585 5585 5585 5584 5582 5581 5579 5577 5576 5574 5573 5571 5570 5568 5566 5565 5563 5562 5560 5559 5557 5555 5553 5552 5552 5552 5553 5553 5554 5554 5553 5553 5552 5551 5550
5577 5577 5577 5576 5576 5576 5576 5577 5577 5577 5577 5576 5575 5574 5572 5571 5569 5568 5566 5564 5562 5560 5558 5556 5554 5553 5552 5551 5549 5547 5545 5545 5544 5543 5544 5545 5545 5545 5544 5545 5544 5543 5541
5571 5571 5571 5570 5570 5569 5569 5569 5569 5570 5569 5569 5568 5567 5566 5564 5562 5561 5559 5557 5555 5553 5551 5549 5547 5545 5544 5543 5540 5538 5537 5537 5536 5535 5535 5535 5536 5536 5536 5536 5536 5535 5534